[[{"header":{"parameterUnit":"m.s-1","parameterCategory":1,"la1":30.2991,"la2":30.254,"lo1":-89.0895,"lo2":-89.0444,"dy":0.0017,"dx":0.0017,"nx":28,"ny":28,"refTime":"2024-11-27T09:00:00:Z","depth":0,"parameterNumber":2,"parameterNumberName":"U-component_of_WINDS"},"data":[0,0,0,0,0,0,0,0,0,0,0,0,0,0,0,0,0,0,0,0,0,0,0,0,0,0,0,0,0,0,0,0,0,0,0,0,0,0,0,0,0,0,0,0,0,0,0,0,0,0,0,0,0,0,0,0,0,0,-2.1898,-2.1898,0,-2.1918,-2.1918,-2.1918,-2.1875,-2.1874,-2.1873,-2.1871,-2.1891,-2.1892,-2.1894,0,0,0,0,0,0,0,0,0,0,0,0,0,-2.1823,-2.1825,-2.1898,-2.1898,-2.1899,-2.1918,-2.1918,-2.1918,-2.1876,-2.1874,-2.1872,-2.1871,-2.189,-2.1892,-2.1894,0,0,0,0,0,0,0,0,0,0,0,0,0,-2.185,-2.1825,-2.1898,-2.188,-2.1878,-2.1918,-2.1918,-2.1918,-2.1876,-2.1874,-2.1872,-2.187,-2.1889,-2.1892,-2.1895,-2.1953,0,0,-2.1903,-2.1904,0,0,0,0,0,0,0,0,-2.1849,-2.1853,-2.1882,-2.1881,-2.1879,-2.1892,-2.1899,-2.193,-2.1876,-2.1877,-2.1871,-2.1869,-2.1893,-2.1895,-2.1903,-2.1954,-2.1955,-2.1903,-2.1905,-2.1906,-2.1907,0,0,0,0,0,0,0,-2.1847,-2.1852,-2.1906,-2.1883,-2.1881,-2.187,-2.1872,-2.1904,-2.1896,-2.1877,-2.1874,-2.1876,-2.1892,-2.1901,-2.1903,-2.1955,-2.1903,-2.1906,-2.1907,-2.1908,-2.2054,-2.2056,0,0,0,0,0,0,-2.1848,-2.1851,-2.1905,-2.1907,-2.1859,-2.1873,-2.1875,-2.189,-2.1896,-2.1895,-2.1878,-2.1874,-2.1897,-2.19,-2.1904,-2.1972,-2.1906,-2.1909,-2.191,-2.2052,-2.2055,-2.2057,0,0,0,0,0,0,-2.1846,-2.1853,-2.1905,-2.1878,-2.1884,-2.1877,-2.1894,-2.1892,-2.1901,-2.1897,-2.1895,-2.1889,-2.1896,-2.19,-2.1941,-2.1972,-2.191,-2.1912,-2.2049,-2.2053,-2.2056,-2.2109,0,0,0,0,0,0,-2.1844,-2.1853,-2.1875,-2.1879,-2.1885,-2.1942,-2.1896,-2.1893,-2.1906,-2.1901,-2.1907,-2.1906,-2.1894,-2.1937,-2.1944,-2.1975,-2.1914,-2.2046,-2.2051,-2.2055,-2.2105,-2.2114,-2.2122,0,0,0,0,0,-2.1842,-2.1889,-2.1876,-2.1883,-2.1913,-2.1944,-2.1947,-2.1933,-2.1908,-2.193,-2.1928,-2.1905,-2.1968,-2.1942,-2.1949,-2.1981,-2.2044,-2.205,-2.2055,-2.2101,-2.2112,-2.2122,0,0,0,0,0,0,-2.1888,-2.1889,-2.1875,-2.1925,-2.1935,-2.1936,-2.1963,-2.1946,-2.1963,-2.1957,-2.194,-2.1941,-2.1986,-2.1988,-2.1958,-2.2038,-2.2002,-2.2009,-2.2035,-2.2046,-2.2054,-2.2052,-2.1917,0,0,0,0,0,-2.1905,-2.193,-2.1929,-2.1973,-2.1979,-2.1971,-2.1983,-2.1972,-2.1981,-2.1985,-2.1985,-2.1995,-2.2017,-2.2031,-2.2051,-2.2105,-2.2106,-2.2131,-2.214,-2.2147,-2.2152,-2.2181,-2.2192,-2.2074,-2.2074,-2.2074,0,0,-2.1938,-2.1942,-2.1958,-2.1983,-2.1989,-2.2015,-2.1974,-2.2003,-2.2022,-2.1989,-2.2028,-2.2029,-2.2038,-2.2086,-2.2107,-2.2089,-2.2185,-2.2153,-2.2159,-2.2161,-2.2187,-2.2198,-2.2208,-2.2077,-2.2077,-2.2076,0,0,-2.2012,-2.2018,-2.2055,-2.2062,-2.2072,-2.2066,-2.2076,-2.208,-2.2079,-2.2118,-2.2094,-2.2116,-2.2154,-2.2162,-2.2171,-2.2249,-2.2228,-2.2256,-2.2301,-2.2329,-2.2338,-2.2346,-2.2373,-2.2383,-2.2262,-2.2262,-2.2262,0,-2.2052,-2.2091,-2.2076,-2.2107,-2.2119,-2.209,-2.2128,-2.2135,-2.2151,-2.2159,-2.2139,-2.2186,-2.2191,-2.224,-2.2259,-2.2267,-2.2277,-2.2254,-2.2338,-2.2346,-2.2353,-2.2379,-2.2389,-2.2265,-2.2265,-2.2264,-2.2264,0,-2.214,-2.2167,-2.2196,-2.2212,-2.2227,-2.2261,-2.2251,-2.2268,-2.2255,-2.2252,-2.2292,-2.2296,-2.2316,-2.2327,-2.2315,-2.2375,-2.2363,-2.2341,-2.2304,-2.2368,-2.2392,-2.2402,-2.227,-2.2268,-2.2267,-2.2267,0,0,-2.2243,-2.2251,-2.2262,-2.2269,-2.2278,-2.2299,-2.2332,-2.2352,-2.2366,-2.2378,-2.2405,-2.2438,-2.2418,-2.2428,-2.2417,-2.2442,-2.2502,-2.2416,-2.2416,-2.2431,-2.2567,-2.2583,-2.2595,-2.249,-2.2492,-2.2493,-2.2566,0,-2.2315,-2.2372,-2.236,-2.2416,-2.244,-2.2414,-2.2443,-2.2452,-2.245,-2.247,-2.2468,-2.2491,-2.2463,-2.2469,-2.2492,-2.249,-2.2529,-2.2485,-2.2514,-2.2515,-2.2511,-2.2608,-2.2624,-2.2693,-2.2576,-2.2577,-2.2578,0,-2.2408,-2.2424,-2.2482,-2.2487,-2.2497,-2.2523,-2.254,-2.2561,-2.257,-2.2567,-2.2579,-2.2563,-2.2596,-2.256,-2.2604,-2.2574,-2.2586,-2.2587,-2.2589,-2.259,-2.255,-2.2611,-2.2715,-2.2725,-2.2593,-2.2592,-2.2591,0,-2.2476,-2.2512,-2.2551,-2.2558,-2.2566,-2.2585,-2.2589,-2.2596,-2.2609,-2.2625,-2.2633,-2.2652,-2.2662,-2.2677,-2.2667,-2.2642,-2.2713,-2.2676,-2.2711,-2.2711,-2.2726,-2.2725,-2.2833,-2.2735,-2.2735,-2.2735,-2.2734,0,-2.2558,-2.2594,-2.2582,-2.2606,-2.2646,-2.2632,-2.2672,-2.2673,-2.268,-2.2704,-2.2683,-2.2706,-2.2691,-2.2713,-2.2706,-2.2743,-2.2748,-2.2746,-2.2743,-2.2747,-2.2747,-2.2754,-2.2748,-2.2737,-2.2737,-2.2736,-2.2736,0,-2.264,-2.2634,-2.2675,-2.2679,-2.2681,-2.271,-2.2713,-2.2736,-2.2733,-2.2763,-2.2769,-2.2764,-2.2788,-2.278,-2.2806,-2.2801,-2.2849,-2.284,-2.2845,-2.2843,-2.2877,-2.2874,-2.2992,-2.3006,-2.2901,-2.2902,-2.2903,0,-2.2692,-2.2719,-2.2727,-2.2741,-2.2747,-2.2771,-2.2784,-2.2772,-2.2786,-2.2799,-2.282,-2.2843,-2.286,-2.29,-2.2898,-2.2918,-2.2909,-2.295,-2.2912,-2.2915,-2.2909,-2.2907,-2.2909,-2.2957,-2.2958,-2.2959,-2.296,0,-2.2785,-2.278,-2.28,-2.282,-2.2836,-2.285,-2.2863,-2.2876,-2.2864,-2.2882,-2.2906,-2.292,-2.2947,-2.2969,-2.2987,-2.2991,-2.2974,-2.2972,-2.2981,-2.2984,-2.2986,-2.2984,-2.2865,-2.2969,-2.2968,-2.2967,-2.2967,-2.2966,-2.2853,-2.2876,-2.2885,-2.2908,-2.2916,-2.2928,-2.2949,-2.2949,-2.297,-2.299,-2.2982,-2.3011,-2.302,-2.3042,-2.3049,-2.3071,-2.3055,-2.3068,-2.3071,-2.3074,-2.3078,-2.2983,-2.3074,-2.3074,-2.3073,-2.3073,-2.3073,0,-2.2944,-2.2948,-2.297,-2.2988,-2.3006,-2.2989,-2.3002,-2.3018,-2.3043,-2.3053,-2.3071,-2.3099,-2.3121,-2.3122,-2.3142,-2.316,-2.3152,-2.3165,-2.3163,-2.3164,-2.3091,-2.3081,-2.3171,-2.3171,-2.3171,-2.3171,-2.3171,-2.3171,-2.2993,-2.3031,-2.3028,-2.307,-2.3074,-2.3102,-2.311,-2.3122,-2.313,-2.3162,-2.3181,-2.3181,-2.3187,-2.3208,-2.3228,-2.3227,-2.3235,-2.3251,-2.3248,-2.3179,-2.317,-2.316,-2.315,-2.3254,-2.3254,-2.3319,-2.3319,-2.332]},{"header":{"parameterUnit":"m.s-1","parameterCategory":1,"la1":30.2991,"la2":30.254,"lo1":-89.0895,"lo2":-89.0444,"dy":0.0017,"dx":0.0017,"nx":28,"ny":28,"refTime":"2024-11-27T09:00:00:Z","depth":0,"parameterNumber":3,"parameterNumberName":"V-component_of_WINDS"},"data":[0,0,0,0,0,0,0,0,0,0,0,0,0,0,0,0,0,0,0,0,0,0,0,0,0,0,0,0,0,0,0,0,0,0,0,0,0,0,0,0,0,0,0,0,0,0,0,0,0,0,0,0,0,0,0,0,0,0,-0.707,-0.707,0,-0.7093,-0.7093,-0.7094,-0.7113,-0.7113,-0.7114,-0.7114,-0.7136,-0.7136,-0.7137,0,0,0,0,0,0,0,0,0,0,0,0,0,-0.704,-0.7041,-0.707,-0.7071,-0.7071,-0.7093,-0.7093,-0.7094,-0.7113,-0.7113,-0.7114,-0.7114,-0.7136,-0.7136,-0.7137,0,0,0,0,0,0,0,0,0,0,0,0,0,-0.7057,-0.7041,-0.707,-0.7083,-0.7085,-0.7093,-0.7093,-0.7094,-0.7113,-0.7113,-0.7114,-0.7114,-0.7136,-0.7136,-0.7137,-0.7134,0,0,-0.7138,-0.7139,0,0,0,0,0,0,0,0,-0.7056,-0.7058,-0.7081,-0.7082,-0.7084,-0.7101,-0.7091,-0.7107,-0.7113,-0.7102,-0.7114,-0.7114,-0.7124,-0.7125,-0.7129,-0.7135,-0.7136,-0.7139,-0.7139,-0.7139,-0.7139,0,0,0,0,0,0,0,-0.7055,-0.7057,-0.7079,-0.7081,-0.7083,-0.7087,-0.709,-0.7094,-0.7111,-0.7103,-0.7105,-0.7107,-0.7125,-0.7128,-0.713,-0.7136,-0.7138,-0.7139,-0.7139,-0.714,-0.7138,-0.7138,0,0,0,0,0,0,-0.7052,-0.7056,-0.7079,-0.708,-0.7071,-0.7087,-0.709,-0.7095,-0.7111,-0.7114,-0.7107,-0.7108,-0.7127,-0.7129,-0.713,-0.7127,-0.7139,-0.714,-0.714,-0.7138,-0.7138,-0.7138,0,0,0,0,0,0,-0.7051,-0.7054,-0.7078,-0.7068,-0.7072,-0.7087,-0.7092,-0.7095,-0.7099,-0.7114,-0.7116,-0.7108,-0.7127,-0.713,-0.7132,-0.7128,-0.714,-0.714,-0.7139,-0.7138,-0.7138,-0.712,0,0,0,0,0,0,-0.705,-0.7054,-0.7054,-0.7068,-0.7072,-0.708,-0.7092,-0.7095,-0.71,-0.7102,-0.7115,-0.7118,-0.7128,-0.7131,-0.7133,-0.7129,-0.7141,-0.7139,-0.7139,-0.7138,-0.7121,-0.7118,-0.7116,0,0,0,0,0,-0.7049,-0.7048,-0.7053,-0.7056,-0.7073,-0.708,-0.7082,-0.7094,-0.71,-0.7099,-0.7108,-0.7117,-0.7128,-0.7131,-0.7133,-0.7129,-0.714,-0.7139,-0.7138,-0.7122,-0.7119,-0.7117,0,0,0,0,0,0,-0.7032,-0.705,-0.7057,-0.706,-0.7068,-0.7083,-0.7083,-0.7091,-0.7098,-0.7099,-0.7113,-0.7116,-0.7117,-0.7123,-0.7127,-0.7126,-0.7135,-0.7134,-0.7122,-0.7119,-0.7117,-0.7115,-0.7141,0,0,0,0,0,-0.7029,-0.7034,-0.7049,-0.705,-0.7054,-0.7067,-0.7071,-0.7079,-0.7089,-0.7092,-0.7101,-0.7109,-0.7114,-0.7117,-0.7123,-0.7122,-0.7124,-0.7119,-0.7117,-0.7116,-0.7115,-0.7113,-0.711,-0.7135,-0.7135,-0.7135,0,0,-0.7022,-0.7032,-0.7034,-0.7047,-0.7054,-0.7058,-0.707,-0.7074,-0.7077,-0.7093,-0.7096,-0.7102,-0.7112,-0.7112,-0.7113,-0.7118,-0.7108,-0.7114,-0.7113,-0.7113,-0.7111,-0.7109,-0.7107,-0.7134,-0.7134,-0.7134,0,0,-0.7011,-0.702,-0.7021,-0.7028,-0.7038,-0.7047,-0.7047,-0.706,-0.7066,-0.7069,-0.708,-0.7082,-0.7091,-0.7097,-0.7101,-0.7089,-0.7097,-0.7091,-0.708,-0.7077,-0.7075,-0.7074,-0.7068,-0.7066,-0.709,-0.709,-0.709,0,-0.7001,-0.7008,-0.702,-0.7023,-0.7027,-0.7041,-0.7042,-0.7047,-0.7059,-0.7061,-0.7067,-0.7076,-0.7084,-0.7085,-0.7082,-0.7085,-0.7084,-0.7089,-0.7075,-0.7073,-0.7072,-0.7067,-0.7065,-0.7089,-0.7089,-0.7089,-0.7089,0,-0.6994,-0.6998,-0.6997,-0.7008,-0.7012,-0.7014,-0.7026,-0.7028,-0.7035,-0.7043,-0.7045,-0.7054,-0.7061,-0.7061,-0.7069,-0.7063,-0.7065,-0.7072,-0.7082,-0.7068,-0.7064,-0.7062,-0.7087,-0.7088,-0.7088,-0.7088,0,0,-0.6974,-0.699,-0.699,-0.6994,-0.7005,-0.7009,-0.701,-0.7016,-0.7017,-0.7024,-0.7025,-0.703,-0.7037,-0.7041,-0.7049,-0.7047,-0.7035,-0.7055,-0.7055,-0.7049,-0.7026,-0.702,-0.7018,-0.7041,-0.704,-0.704,-0.7025,0,-0.6964,-0.6968,-0.6978,-0.6978,-0.6981,-0.6993,-0.6994,-0.7,-0.7007,-0.7009,-0.7016,-0.702,-0.7029,-0.7031,-0.703,-0.7037,-0.703,-0.7038,-0.704,-0.704,-0.7036,-0.7016,-0.701,-0.6995,-0.7024,-0.7023,-0.7023,0,-0.6954,-0.696,-0.696,-0.6969,-0.6971,-0.6971,-0.6977,-0.698,-0.6986,-0.6991,-0.6995,-0.7003,-0.7003,-0.7012,-0.7012,-0.7017,-0.7018,-0.7021,-0.7021,-0.7021,-0.703,-0.7014,-0.6991,-0.6989,-0.7021,-0.7021,-0.7021,0,-0.6938,-0.6946,-0.6946,-0.6949,-0.6961,-0.6961,-0.6965,-0.6972,-0.6975,-0.6979,-0.698,-0.6985,-0.6987,-0.6989,-0.6998,-0.7004,-0.6996,-0.7006,-0.6998,-0.6998,-0.6996,-0.6996,-0.6972,-0.6998,-0.6998,-0.6998,-0.6998,0,-0.6926,-0.6925,-0.6939,-0.6939,-0.6938,-0.6949,-0.6947,-0.6953,-0.6958,-0.6959,-0.6969,-0.6969,-0.6981,-0.6982,-0.6989,-0.6986,-0.6987,-0.699,-0.6992,-0.6989,-0.6988,-0.6989,-0.699,-0.6998,-0.6998,-0.6998,-0.6998,0,-0.6909,-0.6918,-0.6919,-0.6929,-0.6931,-0.6929,-0.6938,-0.6937,-0.6944,-0.6944,-0.6945,-0.6954,-0.6956,-0.6964,-0.6968,-0.6972,-0.6967,-0.6971,-0.6965,-0.6966,-0.6957,-0.6958,-0.6933,-0.6929,-0.6958,-0.6958,-0.6958,0,-0.69,-0.69,-0.6909,-0.691,-0.6914,-0.6916,-0.6918,-0.6928,-0.6929,-0.6935,-0.6934,-0.6936,-0.6938,-0.6939,-0.6946,-0.6948,-0.6952,-0.6943,-0.6952,-0.6948,-0.695,-0.6949,-0.6948,-0.694,-0.694,-0.694,-0.694,0,-0.6884,-0.6888,-0.6891,-0.6894,-0.6896,-0.6899,-0.6903,-0.6903,-0.6913,-0.6914,-0.6915,-0.6917,-0.692,-0.6921,-0.6924,-0.6927,-0.6934,-0.6936,-0.6935,-0.6931,-0.6927,-0.6928,-0.6958,-0.6937,-0.6937,-0.6937,-0.6938,-0.6938,-0.687,-0.6869,-0.6875,-0.6877,-0.688,-0.6883,-0.6882,-0.6888,-0.6889,-0.6892,-0.6898,-0.6897,-0.6902,-0.6906,-0.6909,-0.6908,-0.6913,-0.691,-0.691,-0.6909,-0.6906,-0.6927,-0.6909,-0.6909,-0.6909,-0.6909,-0.6909,0,-0.6853,-0.6857,-0.6858,-0.6863,-0.6863,-0.687,-0.6874,-0.6874,-0.6873,-0.6877,-0.6878,-0.6878,-0.6879,-0.6885,-0.6886,-0.6883,-0.6887,-0.6883,-0.6883,-0.6883,-0.6903,-0.6904,-0.6881,-0.6881,-0.6881,-0.6881,-0.6881,-0.6881,-0.6845,-0.6843,-0.6847,-0.6846,-0.6849,-0.6849,-0.685,-0.6852,-0.6855,-0.6854,-0.6854,-0.6858,-0.6862,-0.6863,-0.6863,-0.6864,-0.6864,-0.6859,-0.6861,-0.688,-0.6882,-0.6885,-0.6886,-0.6859,-0.6859,-0.6842,-0.6842,-0.6841]}]]